Year,Month,Day,Hour,Minute,Value (Times are PST for windspeed in km/hr)
2016,07,05,00,00,1.90
2016,07,05,00,01,0.80
2016,07,05,00,02,1.50
2016,07,05,00,03,2.60
2016,07,05,00,04,1.40
2016,07,05,00,05,0.00
2016,07,05,00,06,0.10
2016,07,05,00,07,0.50
2016,07,05,00,08,3.50
2016,07,05,00,09,5.20
2016,07,05,00,10,2.30
2016,07,05,00,11,3.00
2016,07,05,00,12,3.20
2016,07,05,00,13,0.70
2016,07,05,00,14,1.50
2016,07,05,00,15,2.40
2016,07,05,00,16,2.80
2016,07,05,00,17,0.00
2016,07,05,00,18,0.00
2016,07,05,00,19,0.00
2016,07,05,00,20,0.00
2016,07,05,00,21,0.40
2016,07,05,00,22,0.00
2016,07,05,00,23,3.50
2016,07,05,00,24,3.40
2016,07,05,00,25,1.00
2016,07,05,00,26,0.00
2016,07,05,00,27,0.00
2016,07,05,00,28,0.00
2016,07,05,00,29,0.00
2016,07,05,00,30,0.00
2016,07,05,00,31,0.00
2016,07,05,00,32,0.00
2016,07,05,00,33,0.00
2016,07,05,00,34,0.00
2016,07,05,00,35,0.00
2016,07,05,00,36,0.00
2016,07,05,00,37,0.00
2016,07,05,00,38,1.80
2016,07,05,00,39,0.00
2016,07,05,00,40,0.00
2016,07,05,00,41,0.40
2016,07,05,00,42,1.90
2016,07,05,00,43,0.30
2016,07,05,00,44,0.10
2016,07,05,00,45,0.00
2016,07,05,00,46,0.00
2016,07,05,00,47,0.00
2016,07,05,00,48,0.00
2016,07,05,00,49,0.00
2016,07,05,00,50,1.20
2016,07,05,00,51,0.00
2016,07,05,00,52,0.00
2016,07,05,00,53,0.10
2016,07,05,00,54,0.70
2016,07,05,00,55,0.00
2016,07,05,00,56,0.60
2016,07,05,00,57,0.50
2016,07,05,00,58,0.00
2016,07,05,00,59,0.60
2016,07,05,01,00,0.80
2016,07,05,01,01,0.00
2016,07,05,01,02,0.20
2016,07,05,01,03,0.00
2016,07,05,01,04,1.50
2016,07,05,01,05,0.00
2016,07,05,01,06,0.10
2016,07,05,01,07,0.50
2016,07,05,01,08,0.30
2016,07,05,01,09,1.00
2016,07,05,01,10,1.00
2016,07,05,01,11,0.60
2016,07,05,01,12,0.00
2016,07,05,01,13,0.10
2016,07,05,01,14,0.00
2016,07,05,01,15,2.50
2016,07,05,01,16,0.10
2016,07,05,01,17,2.20
2016,07,05,01,18,0.00
2016,07,05,01,19,0.00
2016,07,05,01,20,0.00
2016,07,05,01,21,0.10
2016,07,05,01,22,1.70
2016,07,05,01,23,0.00
2016,07,05,01,24,1.20
2016,07,05,01,25,0.00
2016,07,05,01,26,4.30
2016,07,05,01,27,0.10
2016,07,05,01,28,0.10
2016,07,05,01,29,0.00
2016,07,05,01,30,0.00
2016,07,05,01,31,0.10
2016,07,05,01,32,0.90
2016,07,05,01,33,0.00
2016,07,05,01,34,0.00
2016,07,05,01,35,0.10
2016,07,05,01,36,0.20
2016,07,05,01,37,0.10
2016,07,05,01,38,3.10
2016,07,05,01,39,0.00
2016,07,05,01,40,1.50
2016,07,05,01,41,1.20
2016,07,05,01,42,0.40
2016,07,05,01,43,0.00
2016,07,05,01,44,0.10
2016,07,05,01,45,0.00
2016,07,05,01,46,0.00
2016,07,05,01,47,0.00
2016,07,05,01,48,0.00
2016,07,05,01,49,0.70
2016,07,05,01,50,1.00
2016,07,05,01,51,0.00
2016,07,05,01,52,0.00
2016,07,05,01,53,0.00
2016,07,05,01,54,0.00
2016,07,05,01,55,0.10
2016,07,05,01,56,0.00
2016,07,05,01,57,0.70
2016,07,05,01,58,0.00
2016,07,05,01,59,0.00
2016,07,05,02,00,0.00
2016,07,05,02,01,1.40
2016,07,05,02,02,0.00
2016,07,05,02,03,0.00
2016,07,05,02,04,0.10
2016,07,05,02,05,0.00
2016,07,05,02,06,0.00
2016,07,05,02,07,0.00
2016,07,05,02,08,0.00
2016,07,05,02,09,0.00
2016,07,05,02,10,0.00
2016,07,05,02,11,0.00
2016,07,05,02,12,0.00
2016,07,05,02,13,0.00
2016,07,05,02,14,0.00
2016,07,05,02,15,0.00
2016,07,05,02,16,0.00
2016,07,05,02,17,0.00
2016,07,05,02,18,0.90
2016,07,05,02,19,2.90
2016,07,05,02,20,0.70
2016,07,05,02,21,0.10
2016,07,05,02,22,0.00
2016,07,05,02,23,0.00
2016,07,05,02,24,0.20
2016,07,05,02,25,0.30
2016,07,05,02,26,0.40
2016,07,05,02,27,0.50
2016,07,05,02,28,0.00
2016,07,05,02,29,0.60
2016,07,05,02,30,0.10
2016,07,05,02,31,0.00
2016,07,05,02,32,0.00
2016,07,05,02,33,0.00
2016,07,05,02,34,0.10
2016,07,05,02,35,0.00
2016,07,05,02,36,0.00
2016,07,05,02,37,0.00
2016,07,05,02,38,0.00
2016,07,05,02,39,0.00
2016,07,05,02,40,0.00
2016,07,05,02,41,0.00
2016,07,05,02,42,0.00
2016,07,05,02,43,0.30
2016,07,05,02,44,2.90
2016,07,05,02,45,1.50
2016,07,05,02,46,0.60
2016,07,05,02,47,1.30
2016,07,05,02,48,0.50
2016,07,05,02,49,1.90
2016,07,05,02,50,1.80
2016,07,05,02,51,0.00
2016,07,05,02,52,0.30
2016,07,05,02,53,1.00
2016,07,05,02,54,0.00
2016,07,05,02,55,4.10
2016,07,05,02,56,2.80
2016,07,05,02,57,4.00
2016,07,05,02,58,1.40
2016,07,05,02,59,0.10
2016,07,05,03,00,0.00
2016,07,05,03,01,0.00
2016,07,05,03,02,0.00
2016,07,05,03,03,0.00
2016,07,05,03,04,0.00
2016,07,05,03,05,0.00
2016,07,05,03,06,0.00
2016,07,05,03,07,0.00
2016,07,05,03,08,0.00
2016,07,05,03,09,1.20
2016,07,05,03,10,0.10
2016,07,05,03,11,0.20
2016,07,05,03,12,0.20
2016,07,05,03,13,0.10
2016,07,05,03,14,0.00
2016,07,05,03,15,0.00
2016,07,05,03,16,0.10
2016,07,05,03,17,0.00
2016,07,05,03,18,0.90
2016,07,05,03,19,0.00
2016,07,05,03,20,0.10
2016,07,05,03,21,1.10
2016,07,05,03,22,0.00
2016,07,05,03,23,0.00
2016,07,05,03,24,0.10
2016,07,05,03,25,1.50
2016,07,05,03,26,1.50
2016,07,05,03,27,1.00
2016,07,05,03,28,2.20
2016,07,05,03,29,0.00
2016,07,05,03,30,2.30
2016,07,05,03,31,3.50
2016,07,05,03,32,0.10
2016,07,05,03,33,0.20
2016,07,05,03,34,0.00
2016,07,05,03,35,0.60
2016,07,05,03,36,0.40
2016,07,05,03,37,0.00
2016,07,05,03,38,0.10
2016,07,05,03,39,0.00
2016,07,05,03,40,1.10
2016,07,05,03,41,0.00
2016,07,05,03,42,3.00
2016,07,05,03,43,0.20
2016,07,05,03,44,0.00
2016,07,05,03,45,0.20
2016,07,05,03,46,0.50
2016,07,05,03,47,2.20
2016,07,05,03,48,2.70
2016,07,05,03,49,0.10
2016,07,05,03,50,2.70
2016,07,05,03,51,0.00
2016,07,05,03,52,0.00
2016,07,05,03,53,0.00
2016,07,05,03,54,0.00
2016,07,05,03,55,2.00
2016,07,05,03,56,0.00
2016,07,05,03,57,0.00
2016,07,05,03,58,0.00
2016,07,05,03,59,0.00
2016,07,05,04,00,0.00
2016,07,05,04,01,0.00
2016,07,05,04,02,0.30
2016,07,05,04,03,3.10
2016,07,05,04,04,0.00
2016,07,05,04,05,0.00
2016,07,05,04,06,0.00
2016,07,05,04,07,3.30
2016,07,05,04,08,1.70
2016,07,05,04,09,0.00
2016,07,05,04,10,0.00
2016,07,05,04,11,0.90
2016,07,05,04,12,0.60
2016,07,05,04,13,0.60
2016,07,05,04,14,1.30
2016,07,05,04,15,0.00
2016,07,05,04,16,0.10
2016,07,05,04,17,1.00
2016,07,05,04,18,2.50
2016,07,05,04,19,2.90
2016,07,05,04,20,0.80
2016,07,05,04,21,1.60
2016,07,05,04,22,0.00
2016,07,05,04,23,0.00
2016,07,05,04,24,0.00
2016,07,05,04,25,0.00
2016,07,05,04,26,0.00
2016,07,05,04,27,0.10
2016,07,05,04,28,0.10
2016,07,05,04,29,0.00
2016,07,05,04,30,0.00
2016,07,05,04,31,0.00
2016,07,05,04,32,0.00
2016,07,05,04,33,0.00
2016,07,05,04,34,0.00
2016,07,05,04,35,1.50
2016,07,05,04,36,2.50
2016,07,05,04,37,1.40
2016,07,05,04,38,0.50
2016,07,05,04,39,0.00
2016,07,05,04,40,0.00
2016,07,05,04,41,2.40
2016,07,05,04,42,0.70
2016,07,05,04,43,0.00
2016,07,05,04,44,2.90
2016,07,05,04,45,0.00
2016,07,05,04,46,0.60
2016,07,05,04,47,2.10
2016,07,05,04,48,0.50
2016,07,05,04,49,0.00
2016,07,05,04,50,0.00
2016,07,05,04,51,1.00
2016,07,05,04,52,0.00
2016,07,05,04,53,0.00
2016,07,05,04,54,0.00
2016,07,05,04,55,0.00
2016,07,05,04,56,1.40
2016,07,05,04,57,0.10
2016,07,05,04,58,0.00
2016,07,05,04,59,0.00
2016,07,05,05,00,0.00
2016,07,05,05,01,0.00
2016,07,05,05,02,0.00
2016,07,05,05,03,0.00
2016,07,05,05,04,0.00
2016,07,05,05,05,0.00
2016,07,05,05,06,0.00
2016,07,05,05,07,0.20
2016,07,05,05,08,2.40
2016,07,05,05,09,0.90
2016,07,05,05,10,1.40
2016,07,05,05,11,0.00
2016,07,05,05,12,0.00
2016,07,05,05,13,0.10
2016,07,05,05,14,0.00
2016,07,05,05,15,0.00
2016,07,05,05,16,0.00
2016,07,05,05,17,0.00
2016,07,05,05,18,0.00
2016,07,05,05,19,0.00
2016,07,05,05,20,0.80
2016,07,05,05,21,1.40
2016,07,05,05,22,0.00
2016,07,05,05,23,0.00
2016,07,05,05,24,0.00
2016,07,05,05,25,0.00
2016,07,05,05,26,0.00
2016,07,05,05,27,0.10
2016,07,05,05,28,0.00
2016,07,05,05,29,0.10
2016,07,05,05,30,0.00
2016,07,05,05,31,1.30
2016,07,05,05,32,1.10
2016,07,05,05,33,2.60
2016,07,05,05,34,0.10
2016,07,05,05,35,0.00
2016,07,05,05,36,0.00
2016,07,05,05,37,0.50
2016,07,05,05,38,1.10
2016,07,05,05,39,0.00
2016,07,05,05,40,0.00
2016,07,05,05,41,0.00
2016,07,05,05,42,0.00
2016,07,05,05,43,0.00
2016,07,05,05,44,0.10
2016,07,05,05,45,0.10
2016,07,05,05,46,0.00
2016,07,05,05,47,0.00
2016,07,05,05,48,0.00
2016,07,05,05,49,0.00
2016,07,05,05,50,0.00
2016,07,05,05,51,0.00
2016,07,05,05,52,0.00
2016,07,05,05,53,1.00
2016,07,05,05,54,1.50
2016,07,05,05,55,0.00
2016,07,05,05,56,0.00
2016,07,05,05,57,0.00
2016,07,05,05,58,0.00
2016,07,05,05,59,0.10
2016,07,05,06,00,2.60
2016,07,05,06,01,2.20
2016,07,05,06,02,0.20
2016,07,05,06,03,0.00
2016,07,05,06,04,0.20
2016,07,05,06,05,0.60
2016,07,05,06,06,1.70
2016,07,05,06,07,0.00
2016,07,05,06,08,0.00
2016,07,05,06,09,0.10
2016,07,05,06,10,0.00
2016,07,05,06,11,0.00
2016,07,05,06,12,0.00
2016,07,05,06,13,0.00
2016,07,05,06,14,0.00
2016,07,05,06,15,0.50
2016,07,05,06,16,0.10
2016,07,05,06,17,0.70
2016,07,05,06,18,1.50
2016,07,05,06,19,0.70
2016,07,05,06,20,0.10
2016,07,05,06,21,0.30
2016,07,05,06,22,0.00
2016,07,05,06,23,0.00
2016,07,05,06,24,0.00
2016,07,05,06,25,0.00
2016,07,05,06,26,0.00
2016,07,05,06,27,0.00
2016,07,05,06,28,0.70
2016,07,05,06,29,2.20
2016,07,05,06,30,1.30
2016,07,05,06,31,0.60
2016,07,05,06,32,0.00
2016,07,05,06,33,0.00
2016,07,05,06,34,0.00
2016,07,05,06,35,0.10
2016,07,05,06,36,0.00
2016,07,05,06,37,0.00
2016,07,05,06,38,0.10
2016,07,05,06,39,0.00
2016,07,05,06,40,0.00
2016,07,05,06,41,0.00
2016,07,05,06,42,0.00
2016,07,05,06,43,0.00
2016,07,05,06,44,0.00
2016,07,05,06,45,0.00
2016,07,05,06,46,1.30
2016,07,05,06,47,1.20
2016,07,05,06,48,0.00
2016,07,05,06,49,0.00
2016,07,05,06,50,0.00
2016,07,05,06,51,0.00
2016,07,05,06,52,0.10
2016,07,05,06,53,0.00
2016,07,05,06,54,0.00
2016,07,05,06,55,0.00
2016,07,05,06,56,0.00
2016,07,05,06,57,0.00
2016,07,05,06,58,0.00
2016,07,05,06,59,0.00
2016,07,05,07,00,0.00
2016,07,05,07,01,0.00
2016,07,05,07,02,0.20
2016,07,05,07,03,0.00
2016,07,05,07,04,0.10
2016,07,05,07,05,0.10
2016,07,05,07,06,1.00
2016,07,05,07,07,0.50
2016,07,05,07,08,0.10
2016,07,05,07,09,0.00
2016,07,05,07,10,1.70
2016,07,05,07,11,2.40
2016,07,05,07,12,0.10
2016,07,05,07,13,0.00
2016,07,05,07,14,0.20
2016,07,05,07,15,0.00
2016,07,05,07,16,1.70
2016,07,05,07,17,4.30
2016,07,05,07,18,2.70
2016,07,05,07,19,0.30
2016,07,05,07,20,0.00
2016,07,05,07,21,1.00
2016,07,05,07,22,3.80
2016,07,05,07,23,6.70
2016,07,05,07,24,3.50
2016,07,05,07,25,4.30
2016,07,05,07,26,3.70
2016,07,05,07,27,3.50
2016,07,05,07,28,2.50
2016,07,05,07,29,1.10
2016,07,05,07,30,0.20
2016,07,05,07,31,1.00
2016,07,05,07,32,1.50
2016,07,05,07,33,5.60
2016,07,05,07,34,5.60
2016,07,05,07,35,2.70
2016,07,05,07,36,3.60
2016,07,05,07,37,6.90
2016,07,05,07,38,2.90
2016,07,05,07,39,3.90
2016,07,05,07,40,2.90
2016,07,05,07,41,4.40
2016,07,05,07,42,2.40
2016,07,05,07,43,3.60
2016,07,05,07,44,0.70
2016,07,05,07,45,0.90
2016,07,05,07,46,2.20
2016,07,05,07,47,1.30
2016,07,05,07,48,1.70
2016,07,05,07,49,1.20
2016,07,05,07,50,1.00
2016,07,05,07,51,4.80
2016,07,05,07,52,6.30
2016,07,05,07,53,7.00
2016,07,05,07,54,1.00
2016,07,05,07,55,0.20
2016,07,05,07,56,1.20
2016,07,05,07,57,3.00
2016,07,05,07,58,2.10
2016,07,05,07,59,1.50
2016,07,05,08,00,3.70
2016,07,05,08,01,7.90
2016,07,05,08,02,6.00
2016,07,05,08,03,4.70
2016,07,05,08,04,3.60
2016,07,05,08,05,2.40
2016,07,05,08,06,4.30
2016,07,05,08,07,7.50
2016,07,05,08,08,9.30
2016,07,05,08,09,4.60
2016,07,05,08,10,6.30
2016,07,05,08,11,5.20
2016,07,05,08,12,4.80
2016,07,05,08,13,2.50
2016,07,05,08,14,0.00
2016,07,05,08,15,4.10
2016,07,05,08,16,1.10
2016,07,05,08,17,0.20
2016,07,05,08,18,0.50
2016,07,05,08,19,1.20
2016,07,05,08,20,1.00
2016,07,05,08,21,0.40
2016,07,05,08,22,0.50
2016,07,05,08,23,3.30
2016,07,05,08,24,0.80
2016,07,05,08,25,1.40
2016,07,05,08,26,2.20
2016,07,05,08,27,8.20
2016,07,05,08,28,4.70
2016,07,05,08,29,0.20
2016,07,05,08,30,0.10
2016,07,05,08,31,1.50
2016,07,05,08,32,5.90
2016,07,05,08,33,6.00
2016,07,05,08,34,4.80
2016,07,05,08,35,7.90
2016,07,05,08,36,7.60
2016,07,05,08,37,5.80
2016,07,05,08,38,5.70
2016,07,05,08,39,6.40
2016,07,05,08,40,5.40
2016,07,05,08,41,5.60
2016,07,05,08,42,8.50
2016,07,05,08,43,8.70
2016,07,05,08,44,7.10
2016,07,05,08,45,7.50
2016,07,05,08,46,7.20
2016,07,05,08,47,8.10
2016,07,05,08,48,6.60
2016,07,05,08,49,6.40
2016,07,05,08,50,4.10
2016,07,05,08,51,6.20
2016,07,05,08,52,1.40
2016,07,05,08,53,1.20
2016,07,05,08,54,1.00
2016,07,05,08,55,3.10
2016,07,05,08,56,6.10
2016,07,05,08,57,3.60
2016,07,05,08,58,3.60
2016,07,05,08,59,6.10
2016,07,05,09,00,5.00
2016,07,05,09,01,5.60
2016,07,05,09,02,4.70
2016,07,05,09,03,4.70
2016,07,05,09,04,5.10
2016,07,05,09,05,0.60
2016,07,05,09,06,2.30
2016,07,05,09,07,3.20
2016,07,05,09,08,1.90
2016,07,05,09,09,5.40
2016,07,05,09,10,3.50
2016,07,05,09,11,3.90
2016,07,05,09,12,4.60
2016,07,05,09,13,5.90
2016,07,05,09,14,4.00
2016,07,05,09,15,5.90
2016,07,05,09,16,6.20
2016,07,05,09,17,4.80
2016,07,05,09,18,6.10
2016,07,05,09,19,6.00
2016,07,05,09,20,5.70
2016,07,05,09,21,4.60
2016,07,05,09,22,6.10
2016,07,05,09,23,6.80
2016,07,05,09,24,7.30
2016,07,05,09,25,8.00
2016,07,05,09,26,6.40
2016,07,05,09,27,8.60
2016,07,05,09,28,5.60
2016,07,05,09,29,6.50
2016,07,05,09,30,4.70
2016,07,05,09,31,9.30
2016,07,05,09,32,5.00
2016,07,05,09,33,6.40
2016,07,05,09,34,4.30
2016,07,05,09,35,7.90
2016,07,05,09,36,7.30
2016,07,05,09,37,4.70
2016,07,05,09,38,4.70
2016,07,05,09,39,5.90
2016,07,05,09,40,4.30
2016,07,05,09,41,6.90
2016,07,05,09,42,5.70
2016,07,05,09,43,8.10
2016,07,05,09,44,7.70
2016,07,05,09,45,8.00
2016,07,05,09,46,6.60
2016,07,05,09,47,6.40
2016,07,05,09,48,5.20
2016,07,05,09,49,6.30
2016,07,05,09,50,5.50
2016,07,05,09,51,7.10
2016,07,05,09,52,7.60
2016,07,05,09,53,7.40
2016,07,05,09,54,3.30
2016,07,05,09,55,5.70
2016,07,05,09,56,3.50
2016,07,05,09,57,7.60
2016,07,05,09,58,8.00
2016,07,05,09,59,6.30
2016,07,05,10,00,6.00
2016,07,05,10,01,8.30
2016,07,05,10,02,9.30
2016,07,05,10,03,10.50
2016,07,05,10,04,6.80
2016,07,05,10,05,11.50
2016,07,05,10,06,10.40
2016,07,05,10,07,7.20
2016,07,05,10,08,7.70
2016,07,05,10,09,5.40
2016,07,05,10,10,10.50
2016,07,05,10,11,8.20
2016,07,05,10,12,9.10
2016,07,05,10,13,10.10
2016,07,05,10,14,8.50
2016,07,05,10,15,9.40
2016,07,05,10,16,8.60
2016,07,05,10,17,8.50
2016,07,05,10,18,6.70
2016,07,05,10,19,8.40
2016,07,05,10,20,6.00
2016,07,05,10,21,8.50
2016,07,05,10,22,7.30
2016,07,05,10,23,6.10
2016,07,05,10,24,3.10
2016,07,05,10,25,9.50
2016,07,05,10,26,10.80
2016,07,05,10,27,6.20
2016,07,05,10,28,6.70
2016,07,05,10,29,6.20
2016,07,05,10,30,12.20
2016,07,05,10,31,7.20
2016,07,05,10,32,9.30
2016,07,05,10,33,4.50
2016,07,05,10,34,11.00
2016,07,05,10,35,8.60
2016,07,05,10,36,6.40
2016,07,05,10,37,10.90
2016,07,05,10,38,8.10
2016,07,05,10,39,14.00
2016,07,05,10,40,8.60
2016,07,05,10,41,9.70
2016,07,05,10,42,12.20
2016,07,05,10,43,11.70
2016,07,05,10,44,11.40
2016,07,05,10,45,14.20
2016,07,05,10,46,11.30
2016,07,05,10,47,8.90
2016,07,05,10,48,12.50
2016,07,05,10,49,9.80
2016,07,05,10,50,11.90
2016,07,05,10,51,9.50
2016,07,05,10,52,10.00
2016,07,05,10,53,9.00
2016,07,05,10,54,8.00
2016,07,05,10,55,5.60
2016,07,05,10,56,8.80
2016,07,05,10,57,11.40
2016,07,05,10,58,12.70
2016,07,05,10,59,11.70
2016,07,05,11,00,15.50
2016,07,05,11,01,11.90
2016,07,05,11,02,8.10
2016,07,05,11,03,12.40
2016,07,05,11,04,10.00
2016,07,05,11,05,12.10
2016,07,05,11,06,9.20
2016,07,05,11,07,10.90
2016,07,05,11,08,9.40
2016,07,05,11,09,8.10
2016,07,05,11,10,10.10
2016,07,05,11,11,12.40
2016,07,05,11,12,8.40
2016,07,05,11,13,13.20
2016,07,05,11,14,10.30
2016,07,05,11,15,11.40
2016,07,05,11,16,16.50
2016,07,05,11,17,11.30
2016,07,05,11,18,11.90
2016,07,05,11,19,12.50
2016,07,05,11,20,11.80
2016,07,05,11,21,13.40
2016,07,05,11,22,12.00
2016,07,05,11,23,11.80
2016,07,05,11,24,11.30
2016,07,05,11,25,12.80
2016,07,05,11,26,13.30
2016,07,05,11,27,14.60
2016,07,05,11,28,10.60
2016,07,05,11,29,9.40
2016,07,05,11,30,7.60
2016,07,05,11,31,5.00
2016,07,05,11,32,8.10
2016,07,05,11,33,8.90
2016,07,05,11,34,5.70
2016,07,05,11,35,11.30
2016,07,05,11,36,11.90
2016,07,05,11,37,11.50
2016,07,05,11,38,13.50
2016,07,05,11,39,17.90
2016,07,05,11,40,15.60
2016,07,05,11,41,13.90
2016,07,05,11,42,13.80
2016,07,05,11,43,8.50
2016,07,05,11,44,9.00
2016,07,05,11,45,11.10
2016,07,05,11,46,8.70
2016,07,05,11,47,8.40
2016,07,05,11,48,14.00
2016,07,05,11,49,10.20
2016,07,05,11,50,12.40
2016,07,05,11,51,9.30
2016,07,05,11,52,9.00
2016,07,05,11,53,10.90
2016,07,05,11,54,8.40
2016,07,05,11,55,8.40
2016,07,05,11,56,11.00
2016,07,05,11,57,10.60
2016,07,05,11,58,10.40
2016,07,05,11,59,12.50
2016,07,05,12,00,10.70
2016,07,05,12,01,12.40
2016,07,05,12,02,9.80
2016,07,05,12,03,5.10
2016,07,05,12,04,6.60
2016,07,05,12,05,11.10
2016,07,05,12,06,10.50
2016,07,05,12,07,8.60
2016,07,05,12,08,8.90
2016,07,05,12,09,5.30
2016,07,05,12,10,8.10
2016,07,05,12,11,7.30
2016,07,05,12,12,9.90
2016,07,05,12,13,7.60
2016,07,05,12,14,8.90
2016,07,05,12,15,12.50
2016,07,05,12,16,10.80
2016,07,05,12,17,8.60
2016,07,05,12,18,11.30
2016,07,05,12,19,10.60
2016,07,05,12,20,7.00
2016,07,05,12,21,9.90
2016,07,05,12,22,10.70
2016,07,05,12,23,10.60
2016,07,05,12,24,9.70
2016,07,05,12,25,7.50
2016,07,05,12,26,9.20
2016,07,05,12,27,9.50
2016,07,05,12,28,6.40
2016,07,05,12,29,8.10
2016,07,05,12,30,8.40
2016,07,05,12,31,4.00
2016,07,05,12,32,4.70
2016,07,05,12,33,5.60
2016,07,05,12,34,5.10
2016,07,05,12,35,11.40
2016,07,05,12,36,9.40
2016,07,05,12,37,5.60
2016,07,05,12,38,7.10
2016,07,05,12,39,6.50
2016,07,05,12,40,5.10
2016,07,05,12,41,6.30
2016,07,05,12,42,4.00
2016,07,05,12,43,4.10
2016,07,05,12,44,3.10
2016,07,05,12,45,5.00
2016,07,05,12,46,9.10
2016,07,05,12,47,9.40
2016,07,05,12,48,9.10
2016,07,05,12,49,6.40
2016,07,05,12,50,4.10
2016,07,05,12,51,6.40
2016,07,05,12,52,5.10
2016,07,05,12,53,5.40
2016,07,05,12,54,9.30
2016,07,05,12,55,9.30
2016,07,05,12,56,8.50
2016,07,05,12,57,7.90
2016,07,05,12,58,4.20
2016,07,05,12,59,8.10
2016,07,05,13,00,6.60
2016,07,05,13,01,5.10
2016,07,05,13,02,4.00
2016,07,05,13,03,5.30
2016,07,05,13,04,5.70
2016,07,05,13,05,5.10
2016,07,05,13,06,4.40
2016,07,05,13,07,5.80
2016,07,05,13,08,5.80
2016,07,05,13,09,7.50
2016,07,05,13,10,5.20
2016,07,05,13,11,6.30
2016,07,05,13,12,6.00
2016,07,05,13,13,7.30
2016,07,05,13,14,5.30
2016,07,05,13,15,2.50
2016,07,05,13,16,2.30
2016,07,05,13,17,5.20
2016,07,05,13,18,5.50
2016,07,05,13,19,6.30
2016,07,05,13,20,8.10
2016,07,05,13,21,4.20
2016,07,05,13,22,7.70
2016,07,05,13,23,6.80
2016,07,05,13,24,6.60
2016,07,05,13,25,6.20
2016,07,05,13,26,8.60
2016,07,05,13,27,6.50
2016,07,05,13,28,1.90
2016,07,05,13,29,5.60
2016,07,05,13,30,1.00
2016,07,05,13,31,1.90
2016,07,05,13,32,1.90
2016,07,05,13,33,8.80
2016,07,05,13,34,2.00
2016,07,05,13,35,1.90
2016,07,05,13,36,4.80
2016,07,05,13,37,3.90
2016,07,05,13,38,6.90
2016,07,05,13,39,2.90
2016,07,05,13,40,0.40
2016,07,05,13,41,0.30
2016,07,05,13,42,3.60
2016,07,05,13,43,2.40
2016,07,05,13,44,4.10
2016,07,05,13,45,5.10
2016,07,05,13,46,5.50
2016,07,05,13,47,7.20
2016,07,05,13,48,5.90
2016,07,05,13,49,4.70
2016,07,05,13,50,2.70
2016,07,05,13,51,5.90
2016,07,05,13,52,4.40
2016,07,05,13,53,4.80
2016,07,05,13,54,2.00
2016,07,05,13,55,4.80
2016,07,05,13,56,4.80
2016,07,05,13,57,5.90
2016,07,05,13,58,4.80
2016,07,05,13,59,4.90
2016,07,05,14,00,4.60
2016,07,05,14,01,3.50
2016,07,05,14,02,2.60
2016,07,05,14,03,1.70
2016,07,05,14,04,7.30
2016,07,05,14,05,5.90
2016,07,05,14,06,2.50
2016,07,05,14,07,4.30
2016,07,05,14,08,4.00
2016,07,05,14,09,2.90
2016,07,05,14,10,3.40
2016,07,05,14,11,1.90
2016,07,05,14,12,4.30
2016,07,05,14,13,7.30
2016,07,05,14,14,5.90
2016,07,05,14,15,4.80
2016,07,05,14,16,6.20
2016,07,05,14,17,6.60
2016,07,05,14,18,1.30
2016,07,05,14,19,5.00
2016,07,05,14,20,5.50
2016,07,05,14,21,8.20
2016,07,05,14,22,6.70
2016,07,05,14,23,6.30
2016,07,05,14,24,6.00
2016,07,05,14,25,6.90
2016,07,05,14,26,5.70
2016,07,05,14,27,6.40
2016,07,05,14,28,1.80
2016,07,05,14,29,7.10
2016,07,05,14,30,7.50
2016,07,05,14,31,5.60
2016,07,05,14,32,5.20
2016,07,05,14,33,5.80
2016,07,05,14,34,7.10
2016,07,05,14,35,8.20
2016,07,05,14,36,9.00
2016,07,05,14,37,4.30
2016,07,05,14,38,4.70
2016,07,05,14,39,5.50
2016,07,05,14,40,6.40
2016,07,05,14,41,4.70
2016,07,05,14,42,4.10
2016,07,05,14,43,5.20
2016,07,05,14,44,6.90
2016,07,05,14,45,2.40
2016,07,05,14,46,4.00
2016,07,05,14,47,3.60
2016,07,05,14,48,4.80
2016,07,05,14,49,0.60
2016,07,05,14,50,5.10
2016,07,05,14,51,4.60
2016,07,05,14,52,6.00
2016,07,05,14,53,6.50
2016,07,05,14,54,6.40
2016,07,05,14,55,8.30
2016,07,05,14,56,6.90
2016,07,05,14,57,7.20
2016,07,05,14,58,2.70
2016,07,05,14,59,6.80
2016,07,05,15,00,6.90
2016,07,05,15,01,8.70
2016,07,05,15,02,5.30
2016,07,05,15,03,4.60
2016,07,05,15,04,8.40
2016,07,05,15,05,8.00
2016,07,05,15,06,8.90
2016,07,05,15,07,6.10
2016,07,05,15,08,7.70
2016,07,05,15,09,2.90
2016,07,05,15,10,6.10
2016,07,05,15,11,8.10
2016,07,05,15,12,4.90
2016,07,05,15,13,7.20
2016,07,05,15,14,7.30
2016,07,05,15,15,9.90
2016,07,05,15,16,6.50
2016,07,05,15,17,8.10
2016,07,05,15,18,7.90
2016,07,05,15,19,4.80
2016,07,05,15,20,7.20
2016,07,05,15,21,5.50
2016,07,05,15,22,3.80
2016,07,05,15,23,7.60
2016,07,05,15,24,6.50
2016,07,05,15,25,3.50
2016,07,05,15,26,6.40
2016,07,05,15,27,7.70
2016,07,05,15,28,6.40
2016,07,05,15,29,7.20
2016,07,05,15,30,4.60
2016,07,05,15,31,4.10
2016,07,05,15,32,4.90
2016,07,05,15,33,1.90
2016,07,05,15,34,1.40
2016,07,05,15,35,0.20
2016,07,05,15,36,5.60
2016,07,05,15,37,6.50
2016,07,05,15,38,2.70
2016,07,05,15,39,3.80
2016,07,05,15,40,5.40
2016,07,05,15,41,4.80
2016,07,05,15,42,4.00
2016,07,05,15,43,3.90
2016,07,05,15,44,5.70
2016,07,05,15,45,5.00
2016,07,05,15,46,4.20
2016,07,05,15,47,6.80
2016,07,05,15,48,4.40
2016,07,05,15,49,4.60
2016,07,05,15,50,7.70
2016,07,05,15,51,3.70
2016,07,05,15,52,2.30
2016,07,05,15,53,3.60
2016,07,05,15,54,6.10
2016,07,05,15,55,6.50
2016,07,05,15,56,6.30
2016,07,05,15,57,0.60
2016,07,05,15,58,2.70
2016,07,05,15,59,2.50
2016,07,05,16,00,1.20
2016,07,05,16,01,0.40
2016,07,05,16,02,2.20
2016,07,05,16,03,2.30
2016,07,05,16,04,2.00
2016,07,05,16,05,1.20
2016,07,05,16,06,1.20
2016,07,05,16,07,0.50
2016,07,05,16,08,4.40
2016,07,05,16,09,2.70
2016,07,05,16,10,4.10
2016,07,05,16,11,2.90
2016,07,05,16,12,1.30
2016,07,05,16,13,2.90
2016,07,05,16,14,0.10
2016,07,05,16,15,0.00
2016,07,05,16,16,0.10
2016,07,05,16,17,0.60
2016,07,05,16,18,3.50
2016,07,05,16,19,3.60
2016,07,05,16,20,3.20
2016,07,05,16,21,3.10
2016,07,05,16,22,3.40
2016,07,05,16,23,0.90
2016,07,05,16,24,0.80
2016,07,05,16,25,1.70
2016,07,05,16,26,3.40
2016,07,05,16,27,1.00
2016,07,05,16,28,2.50
2016,07,05,16,29,0.20
2016,07,05,16,30,0.00
2016,07,05,16,31,0.00
2016,07,05,16,32,0.00
2016,07,05,16,33,2.20
2016,07,05,16,34,0.60
2016,07,05,16,35,2.40
2016,07,05,16,36,3.50
2016,07,05,16,37,2.30
2016,07,05,16,38,1.90
2016,07,05,16,39,5.10
2016,07,05,16,40,5.20
2016,07,05,16,41,3.90
2016,07,05,16,42,2.20
2016,07,05,16,43,3.10
2016,07,05,16,44,3.80
2016,07,05,16,45,4.90
2016,07,05,16,46,2.00
2016,07,05,16,47,2.80
2016,07,05,16,48,0.80
2016,07,05,16,49,1.90
2016,07,05,16,50,5.90
2016,07,05,16,51,4.20
2016,07,05,16,52,2.30
2016,07,05,16,53,1.00
2016,07,05,16,54,3.60
2016,07,05,16,55,5.10
2016,07,05,16,56,4.00
2016,07,05,16,57,5.10
2016,07,05,16,58,4.70
2016,07,05,16,59,2.10
2016,07,05,17,00,1.40
2016,07,05,17,01,2.80
2016,07,05,17,02,3.60
2016,07,05,17,03,4.30
2016,07,05,17,04,0.90
2016,07,05,17,05,3.10
2016,07,05,17,06,1.40
2016,07,05,17,07,4.80
2016,07,05,17,08,3.10
2016,07,05,17,09,0.70
2016,07,05,17,10,0.40
2016,07,05,17,11,1.60
2016,07,05,17,12,3.80
2016,07,05,17,13,5.30
2016,07,05,17,14,6.60
2016,07,05,17,15,5.70
2016,07,05,17,16,4.00
2016,07,05,17,17,8.00
2016,07,05,17,18,4.20
2016,07,05,17,19,3.70
2016,07,05,17,20,2.10
2016,07,05,17,21,2.40
2016,07,05,17,22,4.90
2016,07,05,17,23,2.80
2016,07,05,17,24,1.00
2016,07,05,17,25,4.20
2016,07,05,17,26,3.10
2016,07,05,17,27,3.10
2016,07,05,17,28,5.70
2016,07,05,17,29,1.10
2016,07,05,17,30,6.10
2016,07,05,17,31,1.90
2016,07,05,17,32,4.30
2016,07,05,17,33,5.00
2016,07,05,17,34,4.60
2016,07,05,17,35,1.40
2016,07,05,17,36,1.20
2016,07,05,17,37,1.50
2016,07,05,17,38,0.50
2016,07,05,17,39,3.00
2016,07,05,17,40,0.20
2016,07,05,17,41,0.00
2016,07,05,17,42,1.40
2016,07,05,17,43,4.10
2016,07,05,17,44,2.30
2016,07,05,17,45,1.50
2016,07,05,17,46,1.00
2016,07,05,17,47,3.40
2016,07,05,17,48,4.20
2016,07,05,17,49,3.00
2016,07,05,17,50,2.80
2016,07,05,17,51,1.80
2016,07,05,17,52,0.00
2016,07,05,17,53,0.00
2016,07,05,17,54,0.00
2016,07,05,17,55,0.00
2016,07,05,17,56,0.00
2016,07,05,17,57,0.00
2016,07,05,17,58,0.00
2016,07,05,17,59,0.00
2016,07,05,18,00,0.00
2016,07,05,18,01,0.00
2016,07,05,18,02,0.00
2016,07,05,18,03,0.00